Location: Deurze
(52.9838°N, 6.6090°E)
Time: 18:42:18
(UTC+00:00)

COSMO-SKYMED 1 - Pass Details

Date: 11 March 2026
Orbit: 576 x 577 km, 97.9° (Epoch: 20 April)

Event Time Altitude Azimuth Distance (km) Brightness Sun altitude
Rises 18:10:50 0° 15° (NNE) 2,809 5.8 -6.9°
Reaches altitude 10° 18:13:00 10° 17° (NNE) 1,905 4.9 -7.2°
Maximum altitude 18:17:07 76° 103° (ESE) 602 2.4 -7.8°
Drops below altitude 10° 18:21:13 10° 190° (S) 1,887 5.1 -8.5°
Sets 18:23:22 0° 192° (SSW) 2,781 6.0 -8.8°
